Theta_e
318 318 318 318 318 319 319 319 318 318 318 318 317 319 318 317 310 299 295 306 316 324 321 303 301 300 299 297 297 296 288 285 286 287 287 290 290 292 301 305 307 310 311 316 319
317 317 317 317 318 319 319 319 319 318 318 318 318 318 317 315 296 295 309 320 320 322 301 298 297 298 294 294 294 291 286 287 288 287 287 289 289 289 292 294 301 305 311 314 308
316 316 317 318 318 319 319 319 320 320 321 320 320 319 316 306 293 294 315 317 318 311 302 299 298 296 292 293 291 290 287 289 289 291 290 289 289 289 289 290 293 297 306 306 302
315 315 316 317 318 319 319 320 321 320 321 321 317 316 310 295 285 297 315 314 315 305 300 297 295 292 290 289 291 288 290 290 292 291 290 289 289 286 286 289 296 307 305 300 298
315 315 315 316 317 318 319 321 320 320 320 320 314 314 299 292 291 301 310 305 302 301 296 295 293 291 288 289 290 289 289 291 291 290 289 289 286 286 285 288 302 300 298 297 296
315 314 315 316 317 317 319 320 319 319 319 318 315 310 295 289 299 299 298 301 300 298 296 294 292 293 290 289 289 290 290 289 289 288 288 287 286 287 286 288 297 296 294 293 292
314 314 315 316 317 317 318 319 317 318 317 315 312 299 294 290 297 298 298 299 300 298 297 296 294 292 291 289 291 290 288 288 287 286 287 287 286 284 286 289 295 293 291 291 291
313 313 314 316 315 316 317 318 315 316 315 315 310 296 291 297 298 298 297 299 302 299 297 297 297 293 291 291 290 287 286 283 287 285 287 288 284 284 286 297 295 292 290 289 288
313 313 314 315 314 314 315 316 313 315 312 309 298 294 289 302 295 296 296 296 299 299 297 298 294 290 289 286 284 284 280 283 285 285 284 285 284 284 286 296 290 289 288 288 286
312 312 313 315 314 313 313 314 310 306 301 297 296 292 292 290 294 295 295 297 295 295 295 292 288 285 283 284 280 281 281 283 282 283 281 280 280 281 284 287 287 287 286 285 284
312 313 313 314 313 310 301 296 291 290 292 288 287 288 290 294 295 293 294 293 294 290 285 286 282 278 280 281 281 281 282 278 279 282 280 279 278 280 282 283 283 284 284 283 282
312 312 312 313 312 308 298 292 290 291 284 289 289 289 291 291 288 292 295 288 286 282 284 281 278 281 282 282 280 279 278 277 279 281 280 278 279 281 280 281 282 283 282 282 281
311 312 311 312 309 300 295 293 297 293 284 285 288 288 289 290 285 287 290 287 282 281 280 279 279 283 281 280 282 278 278 276 277 279 278 275 278 278 280 281 280 281 282 281 281
311 311 310 310 300 294 293 297 297 293 278 283 286 288 289 288 284 289 289 287 285 278 279 280 281 280 280 279 281 279 280 280 279 276 273 276 274 277 277 277 278 280 278 279 279
310 310 308 305 294 291 294 296 295 291 272 283 285 291 288 286 284 287 288 287 281 281 281 280 279 279 279 279 281 278 280 279 278 273 273 274 270 276 276 276 277 278 278 278 278
310 308 304 295 292 291 294 294 291 281 271 278 283 283 284 284 284 285 284 287 285 281 281 281 282 280 279 281 281 281 278 277 275 272 269 266 269 276 277 278 278 278 278 279 278
309 305 297 293 290 292 294 290 282 274 279 279 280 282 280 280 282 281 280 278 278 276 275 278 280 279 281 278 280 279 274 270 271 269 272 260 268 277 279 278 278 278 278 278 278
308 301 296 293 292 293 291 285 275 271 273 281 281 279 279 280 280 280 279 277 278 277 271 271 275 277 280 278 277 277 273 271 266 268 270 261 269 278 278 277 278 278 278 278 277
304 294 293 294 294 291 288 276 274 277 282 281 280 277 276 279 277 278 276 277 278 278 274 271 275 279 280 279 277 276 271 274 264 255 262 269 274 279 278 276 277 277 277 277 277
292 292 293 294 292 289 282 277 276 282 283 282 277 276 271 273 277 276 275 277 279 280 278 274 271 274 279 279 278 276 277 271 269 266 266 268 264 276 275 274 274 276 276 277 278
291 290 294 292 289 285 276 269 276 282 283 281 278 273 277 275 275 274 276 278 279 277 279 274 271 275 277 272 272 272 270 271 271 270 266 264 271 275 273 270 271 272 277 274 275
289 286 293 290 284 266 271 274 285 282 284 282 280 279 277 276 276 271 275 278 280 279 276 278 275 268 273 274 276 276 273 275 271 267 266 267 271 275 269 265 264 272 275 275 269
286 286 292 291 280 271 276 279 283 282 282 281 280 280 278 273 274 276 277 281 282 280 278 278 270 267 274 273 274 272 276 274 269 272 266 267 274 271 266 267 268 269 272 270 270
287 284 287 283 280 280 276 278 279 284 282 282 281 280 278 272 276 273 278 281 283 281 287 282 275 272 272 274 270 270 274 274 272 264 271 273 277 281 282 273 273 271 270 267 267
284 281 281 279 281 280 280 279 278 278 282 282 279 280 278 273 273 270 277 278 281 285 280 278 269 270 271 271 267 273 274 272 272 275 270 276 274 279 282 278 272 267 265 267 267
287 285 280 277 281 280 281 280 280 278 281 279 277 280 279 275 279 277 277 277 278 279 278 277 268 266 267 272 272 270 273 274 273 274 272 274 273 280 281 265 265 268 263 265 265
285 287 288 282 281 280 280 281 281 281 281 282 281 280 278 280 280 279 279 279 278 278 277 271 266 264 266 265 266 270 270 272 270 269 270 269 276 267 270 268 267 267 264 264 263
Wind_Speed
15 16 15 15 14 13 13 12 10 8 8 8 8 7 6 8 9 6 12 6 10 17 10 5 3 4 5 6 6 2 7 3 2 2 1 4 2 4 2 6 5 4 3 4 1
15 15 15 15 14 13 12 11 11 10 9 8 7 5 4 4 4 10 3 20 17 12 3 5 4 5 6 5 6 7 5 2 1 1 1 3 4 2 4 3 4 4 6 7 11
15 15 15 15 14 13 12 11 10 11 11 7 6 2 2 2 6 6 14 24 19 7 3 2 3 5 7 5 7 5 5 4 1 2 2 1 4 4 4 5 3 1 4 4 8
16 15 14 14 13 12 12 10 11 11 9 8 6 4 6 3 6 7 21 22 15 3 2 6 6 6 7 6 4 9 5 2 2 5 1 2 3 6 6 3 7 3 7 6 11
17 16 14 14 13 12 11 10 10 11 10 8 7 3 5 10 3 8 20 15 5 3 6 4 7 5 6 6 4 7 3 5 2 6 5 6 5 7 4 7 1 8 11 9 9
16 16 16 14 13 11 11 8 9 9 7 10 9 5 7 20 5 9 11 8 7 6 7 8 4 6 9 5 5 3 6 3 5 7 5 3 2 3 2 5 5 8 9 9 10
16 16 16 16 15 12 10 9 8 8 7 6 7 5 16 4 2 9 9 5 6 4 7 5 2 6 5 6 4 4 5 3 9 7 2 1 2 2 4 6 8 8 9 8 9
17 15 15 15 17 14 11 9 7 8 8 4 7 6 8 2 3 8 9 3 8 6 6 4 6 11 7 4 6 6 6 4 3 8 1 1 8 5 3 12 11 9 7 7 7
18 18 16 12 15 12 12 6 9 4 8 6 8 8 5 7 9 8 7 6 7 3 8 3 8 7 7 5 5 8 2 2 6 4 5 2 7 3 2 10 5 5 7 6 6
18 18 18 15 15 13 8 2 6 8 9 3 5 6 9 8 6 8 6 5 6 4 7 13 9 7 6 6 3 2 0 3 5 5 6 5 11 4 1 3 4 5 5 5 5
19 18 17 15 13 13 6 5 9 11 14 6 3 4 5 10 4 9 5 5 6 11 7 7 13 5 3 3 2 1 1 3 4 1 5 5 9 9 7 5 6 5 6 6 6
20 19 18 14 10 11 7 9 3 3 7 5 2 3 2 2 8 22 9 9 10 6 6 10 7 4 3 3 3 3 1 4 7 2 3 7 20 13 10 7 8 11 8 7 4
19 19 19 14 3 10 7 5 2 2 7 6 3 5 6 7 5 12 9 4 8 9 9 8 1 3 1 5 2 1 0 2 5 9 1 8 10 3 3 2 4 3 3 3 5
19 17 16 6 10 1 5 4 2 2 9 15 10 7 6 5 7 3 5 4 9 3 3 6 3 1 1 2 1 3 2 2 4 5 4 5 8 6 1 5 6 6 7 6 6
18 15 10 16 5 5 2 4 2 3 9 9 10 4 7 9 5 9 3 7 5 3 3 1 2 3 3 1 2 1 2 1 3 3 3 4 3 10 3 6 8 10 9 10 8
16 14 7 6 5 1 4 2 3 12 1 7 5 9 7 8 8 8 7 9 4 3 5 2 1 1 2 3 1 2 1 4 3 3 4 3 3 7 4 5 3 2 9 11 9
13 9 8 1 1 2 1 4 9 10 4 7 5 7 1 7 8 9 6 9 5 6 6 5 1 2 3 3 1 6 6 6 8 7 6 1 2 14 3 5 3 5 7 10 7
9 4 4 3 2 1 3 8 12 4 5 1 2 2 5 7 5 9 3 4 5 5 4 4 8 4 6 3 2 3 5 7 5 4 7 2 8 7 3 2 4 5 6 6 8
3 3 3 4 2 2 7 10 9 7 1 2 1 6 6 3 1 5 6 2 4 6 5 4 6 2 4 2 3 1 5 3 7 2 4 3 9 12 2 6 5 6 3 8 8
2 2 2 6 1 5 10 4 3 2 2 1 3 2 1 6 5 6 4 2 3 5 2 2 5 1 3 1 4 4 3 5 4 6 9 6 7 9 7 6 4 7 8 9 7
4 4 2 3 3 9 7 5 3 3 1 4 2 2 2 1 2 3 4 3 3 1 3 3 5 6 1 2 6 3 3 6 3 4 5 7 9 9 8 5 5 7 8 7 7
3 5 2 1 9 2 3 4 4 2 1 1 2 2 1 2 0 1 1 6 2 3 1 1 4 4 9 1 2 1 4 4 6 7 4 1 17 1 4 4 3 8 7 6 1
3 2 3 2 6 3 4 1 1 1 2 1 2 2 2 2 4 1 1 4 4 4 5 5 2 5 13 3 3 3 5 4 3 2 8 2 11 1 2 5 8 9 8 4 4
4 5 7 8 1 7 3 1 1 1 1 2 3 2 2 3 2 3 3 3 3 2 4 4 3 9 9 10 3 5 6 5 6 3 6 17 31 26 20 7 7 5 7 5 4
5 1 3 3 5 4 3 3 1 1 2 1 2 3 5 0 1 3 2 3 2 3 2 4 5 3 5 9 5 13 16 9 14 20 10 30 15 28 21 11 5 4 4 4 3
4 4 3 0 2 2 2 3 4 3 3 1 3 3 5 5 4 4 2 2 4 2 3 2 4 2 8 5 6 13 18 17 18 18 16 26 30 21 16 3 3 4 2 2 2
1 2 4 2 1 3 4 5 4 4 1 0 3 4 3 6 3 1 1 3 2 3 5 2 3 3 8 4 10 10 12 9 5 5 7 8 13 0 3 3 3 3 2 2 4
Wind_Direction
0 356 351 349 352 350 354 350 344 344 343 340 346 338 9 5 33 27 49 297 317 312 315 269 29 12 38 64 42 93 65 71 48 94 239 336 79 5 84 87 48 44 60 52 52
359 357 353 354 351 349 355 353 339 335 333 336 323 319 10 16 62 46 185 341 336 330 37 41 34 23 52 35 31 59 77 94 252 220 92 358 76 317 73 49 61 72 58 41 47
-0 358 353 351 348 342 345 337 338 325 337 341 339 328 27 124 64 319 334 339 336 344 97 100 90 66 63 32 360 26 109 162 7 316 215 103 61 29 133 42 47 268 100 57 49
359 358 354 351 346 346 345 342 341 334 352 359 14 82 75 43 69 289 335 332 331 321 112 47 41 54 66 54 346 94 41 129 346 356 154 72 94 64 49 310 285 98 84 82 62
356 353 350 349 347 338 340 341 342 345 345 7 45 89 53 56 17 301 328 329 352 31 55 80 56 105 94 107 64 78 143 58 58 36 51 70 59 142 48 344 97 103 75 75 78
355 351 347 350 352 345 338 347 350 351 1 11 48 74 66 74 303 319 325 336 19 31 35 38 93 109 86 58 71 100 85 74 38 9 51 88 52 156 266 329 126 104 96 81 74
358 354 351 351 352 348 346 351 354 359 25 34 54 87 62 61 340 321 345 9 355 14 69 22 83 74 128 91 156 135 76 37 20 337 62 285 231 201 267 230 150 120 114 94 73
356 353 357 354 359 350 342 343 354 21 29 8 36 67 88 277 283 5 347 343 10 38 89 19 82 93 61 127 35 50 52 22 321 351 276 127 254 203 300 181 181 144 117 101 71
354 351 355 358 352 340 323 339 5 32 18 15 38 78 28 338 17 329 26 347 306 44 46 67 65 80 30 68 36 14 145 317 308 57 315 61 267 180 339 202 179 139 135 120 98
354 351 352 354 359 343 327 332 8 38 359 35 83 45 11 313 306 332 320 352 25 343 23 34 47 63 28 40 180 237 25 289 270 342 348 292 268 240 269 190 190 160 152 149 131
354 351 351 353 6 1 34 23 20 2 35 73 301 97 309 300 281 349 344 349 13 51 47 17 64 48 332 333 349 130 180 269 259 41 323 253 272 255 199 185 199 191 187 182 171
353 350 347 347 14 29 66 76 143 173 73 31 31 10 307 315 5 353 13 56 44 52 347 31 58 327 288 9 72 48 3 290 280 18 350 352 291 262 180 201 188 195 201 193 187
353 350 348 345 85 43 71 96 265 191 84 12 24 28 333 22 49 331 24 52 63 49 16 92 299 302 171 30 21 40 175 319 260 331 69 324 285 280 222 168 205 213 205 203 202
354 355 354 348 46 308 46 320 308 208 74 330 348 4 352 342 42 323 13 107 34 137 77 88 321 348 116 98 111 295 78 316 299 23 286 17 282 306 302 258 234 215 211 208 210
354 353 6 36 139 55 306 321 300 50 59 318 320 305 339 75 311 359 336 29 80 90 117 261 6 17 59 343 81 294 339 278 79 104 15 349 69 272 14 285 245 218 209 213 212
352 352 8 25 51 2 318 346 38 45 322 336 318 346 12 14 2 305 21 37 145 94 36 111 133 52 349 313 214 19 64 44 67 104 21 243 106 279 237 212 280 257 209 206 211
344 21 52 37 30 324 44 48 43 90 342 313 332 4 61 347 353 23 28 15 50 58 358 343 80 59 11 334 89 38 42 340 354 5 233 42 8 250 280 232 231 274 238 208 204
343 46 38 76 297 154 67 52 69 250 236 26 300 302 49 359 25 352 37 40 46 41 82 75 333 16 349 76 206 47 121 142 275 284 281 17 242 257 192 281 266 279 272 199 209
40 357 44 347 345 71 74 51 185 194 196 331 296 57 334 1 121 28 23 34 25 27 91 38 294 22 30 6 65 311 41 143 95 93 28 262 290 288 265 278 260 258 224 228 226
70 50 354 317 34 66 71 159 146 234 322 236 96 96 326 310 18 46 4 22 58 47 150 193 334 300 284 63 36 103 164 32 9 337 310 278 269 248 298 283 273 255 252 246 234
55 43 281 355 53 49 95 202 227 238 335 23 115 90 150 313 11 352 341 33 23 42 63 125 95 288 52 194 181 22 12 44 116 140 207 294 251 210 225 227 225 263 262 269 248
78 36 313 69 50 33 82 191 205 160 164 100 79 93 120 152 239 94 226 183 194 171 73 189 131 273 235 80 7 314 203 155 125 263 234 195 277 70 222 235 237 276 285 297 281
55 287 326 58 80 10 309 1 281 151 108 113 117 65 100 143 19 314 294 183 174 168 169 168 314 352 336 33 10 203 209 158 122 80 203 165 266 288 299 286 245 256 282 295 286
61 19 339 48 23 117 126 327 89 323 102 111 117 110 142 18 10 244 257 172 173 153 141 152 176 178 207 219 162 246 213 194 138 181 243 229 277 278 281 265 275 263 266 291 270
29 284 201 321 351 73 89 128 85 286 350 67 29 218 162 79 319 262 262 298 108 161 75 124 215 224 257 250 209 255 256 196 201 233 210 273 259 275 290 286 274 274 298 344 350
103 114 8 81 306 105 32 196 178 278 159 234 154 177 171 176 219 273 188 245 248 18 155 11 260 103 281 293 253 265 249 236 233 254 257 261 276 275 287 342 299 273 280 319 310
191 108 110 309 357 78 224 169 200 163 197 94 190 124 211 242 230 257 268 46 28 167 172 150 129 42 268 333 313 297 226 181 191 221 165 209 245 75 307 319 256 280 172 240 257